RYR9534 EDJA-LMML

Flight info

Callsign RYR9534
Flight time 1h 57m
Altitude 37000
Route KPT4B KPT Z999 BEMKI L607 XEBIX Y740 NATAG DCT LORLO DCT UNTAD DCT VABOK DCT SUKOM DCT MARON DCT EKOLA L12 GZO
Aircraft B38M/M-SDE1FGHILORVWXY/HB1

Departure

Time 2026-04-26 10:26
Airport Memmingen Allgau Airport (EDJA)

Arrival

Time 2026-04-26 12:24
Airport Malta International Airport (LMML)
Time Latitude Longitude Altitude Speed Heading
2026-04-26 10:00 47.98760 10.22879 2107 ft 0 kts 53°
2026-04-26 10:16 47.98762 10.22882 2080 ft 1 kts 53°
2026-04-26 10:16 47.98764 10.22888 2080 ft 0 kts 55°
2026-04-26 10:18 47.98765 10.22889 2078 ft 1 kts 55°
2026-04-26 10:18 47.98766 10.22905 2079 ft 3 kts 99°
2026-04-26 10:18 47.98754 10.22923 2078 ft 0 kts 148°
2026-04-26 10:18 47.98751 10.22926 2078 ft 2 kts 150°
2026-04-26 10:19 47.98725 10.22954 2081 ft 7 kts 131°
2026-04-26 10:19 47.98704 10.23037 2083 ft 8 kts 87°
2026-04-26 10:19 47.98718 10.23119 2085 ft 10 kts 75°
2026-04-26 10:19 47.98742 10.23242 2084 ft 15 kts 73°
2026-04-26 10:20 47.98773 10.23388 2085 ft 12 kts 72°
2026-04-26 10:20 47.98788 10.23459 2086 ft 10 kts 77°
2026-04-26 10:20 47.98789 10.23472 2086 ft 0 kts 78°
2026-04-26 10:22 47.98791 10.23489 2086 ft 5 kts 87°
2026-04-26 10:22 47.98764 10.23581 2084 ft 14 kts 120°
2026-04-26 10:22 47.98798 10.23754 2081 ft 22 kts 58°
2026-04-26 10:22 47.98890 10.23993 2077 ft 31 kts 61°
2026-04-26 10:23 47.99007 10.24281 2073 ft 36 kts 59°
2026-04-26 10:23 47.99136 10.24618 2072 ft 37 kts 59°
2026-04-26 10:23 47.99265 10.24936 2069 ft 36 kts 56°
2026-04-26 10:23 47.99396 10.25232 2064 ft 32 kts 53°
2026-04-26 10:24 47.99398 10.25313 2063 ft 6 kts 270°
2026-04-26 10:24 47.99387 10.25226 2064 ft 0 kts 240°
2026-04-26 10:25 47.99358 10.25148 2066 ft 37 kts 239°
2026-04-26 10:26 47.99093 10.24478 2073 ft 110 kts 242°
2026-04-26 10:26 47.98613 10.23236 2121 ft 162 kts 242°
2026-04-26 10:26 47.98046 10.21658 2568 ft 183 kts 244°
2026-04-26 10:26 47.97405 10.19875 3059 ft 204 kts 242°
2026-04-26 10:27 47.96686 10.17998 3909 ft 211 kts 241°
2026-04-26 10:27 47.95868 10.16031 4469 ft 235 kts 238°
2026-04-26 10:27 47.94969 10.13880 5114 ft 253 kts 239°
2026-04-26 10:27 47.94043 10.11645 6046 ft 259 kts 238°
2026-04-26 10:28 47.92785 10.09627 6683 ft 274 kts 213°
2026-04-26 10:28 47.90996 10.08671 7060 ft 277 kts 186°
2026-04-26 10:28 47.89084 10.08971 7251 ft 280 kts 168°
2026-04-26 10:28 47.87175 10.09601 8054 ft 281 kts 168°
2026-04-26 10:29 47.85272 10.10386 8886 ft 289 kts 159°
2026-04-26 10:29 47.84932 10.10590 9027 ft 291 kts 155°
2026-04-26 10:29 47.83383 10.12469 9921 ft 290 kts 122°
2026-04-26 10:30 47.82437 10.15127 10705 ft 297 kts 117°
2026-04-26 10:30 47.81401 10.17910 11138 ft 317 kts 119°
2026-04-26 10:30 47.80274 10.20812 11654 ft 331 kts 120°
2026-04-26 10:30 47.79091 10.23801 12404 ft 336 kts 120°
2026-04-26 10:31 47.77887 10.26807 13254 ft 341 kts 121°
2026-04-26 10:31 47.76633 10.29827 14037 ft 346 kts 127°
2026-04-26 10:31 47.74896 10.32271 14817 ft 347 kts 149°
2026-04-26 10:31 47.72666 10.33635 15549 ft 350 kts 170°
2026-04-26 10:32 47.70234 10.33766 16274 ft 352 kts 188°
2026-04-26 10:32 47.67790 10.33237 16921 ft 358 kts 189°
2026-04-26 10:32 47.65322 10.32711 17695 ft 360 kts 190°
2026-04-26 10:32 47.62833 10.32156 18381 ft 364 kts 191°
2026-04-26 10:33 47.60320 10.31578 19010 ft 367 kts 191°
2026-04-26 10:33 47.57768 10.31188 19555 ft 373 kts 179°
2026-04-26 10:33 47.55240 10.31981 20230 ft 375 kts 159°
2026-04-26 10:33 47.52963 10.33907 20748 ft 380 kts 145°
2026-04-26 10:34 47.50815 10.36211 21322 ft 384 kts 145°
2026-04-26 10:34 47.48647 10.38555 21850 ft 388 kts 145°
2026-04-26 10:34 47.46464 10.40929 22388 ft 392 kts 145°
2026-04-26 10:34 47.44262 10.43333 22918 ft 395 kts 145°
2026-04-26 10:35 47.42035 10.45748 23472 ft 398 kts 147°
2026-04-26 10:35 47.39543 10.47538 23861 ft 402 kts 166°
2026-04-26 10:35 47.36791 10.48212 24327 ft 402 kts 176°
2026-04-26 10:35 47.33999 10.48712 24724 ft 406 kts 176°
2026-04-26 10:36 47.31187 10.49179 25200 ft 408 kts 176°
2026-04-26 10:36 47.28356 10.49621 25628 ft 410 kts 176°
2026-04-26 10:36 47.25508 10.50045 26074 ft 413 kts 176°
2026-04-26 10:36 47.22642 10.50460 26523 ft 415 kts 176°
2026-04-26 10:37 47.19762 10.50871 26961 ft 417 kts 176°
2026-04-26 10:37 47.16864 10.51282 27380 ft 419 kts 177°
2026-04-26 10:37 47.13952 10.51696 27800 ft 421 kts 177°
2026-04-26 10:37 47.11025 10.52112 28219 ft 424 kts 177°
2026-04-26 10:38 47.08121 10.52524 28623 ft 426 kts 177°
2026-04-26 10:38 47.05174 10.53081 29006 ft 430 kts 168°
2026-04-26 10:38 47.02304 10.54372 29431 ft 432 kts 165°
2026-04-26 10:38 46.99430 10.55701 29752 ft 435 kts 165°
2026-04-26 10:39 46.96534 10.57021 30131 ft 437 kts 165°
2026-04-26 10:39 46.93624 10.58340 30475 ft 439 kts 165°
2026-04-26 10:39 46.90696 10.59661 30761 ft 442 kts 165°
2026-04-26 10:39 46.87756 10.60987 31099 ft 443 kts 165°
2026-04-26 10:40 46.84805 10.62317 31413 ft 445 kts 165°
2026-04-26 10:40 46.82803 10.63218 31610 ft 446 kts 165°
2026-04-26 10:40 46.79869 10.64537 31912 ft 448 kts 165°
2026-04-26 10:40 46.76837 10.65898 32172 ft 451 kts 165°
2026-04-26 10:41 46.73870 10.67230 32465 ft 453 kts 165°
2026-04-26 10:41 46.70766 10.68309 32761 ft 453 kts 171°
2026-04-26 10:41 46.67672 10.69283 32995 ft 456 kts 169°
2026-04-26 10:41 46.64614 10.70285 33282 ft 458 kts 169°
2026-04-26 10:42 46.61510 10.71313 33627 ft 457 kts 169°
2026-04-26 10:42 46.58409 10.72339 34051 ft 456 kts 169°
2026-04-26 10:42 46.55320 10.73359 34421 ft 455 kts 170°
2026-04-26 10:42 46.52241 10.74373 34796 ft 453 kts 170°
2026-04-26 10:43 46.49166 10.75385 35121 ft 453 kts 170°
2026-04-26 10:43 46.46098 10.76394 35436 ft 452 kts 170°
2026-04-26 10:43 46.43033 10.77400 35767 ft 451 kts 170°
2026-04-26 10:43 46.39977 10.78403 36083 ft 450 kts 170°
2026-04-26 10:44 46.36927 10.79402 36401 ft 449 kts 170°
2026-04-26 10:44 46.33882 10.80400 36698 ft 448 kts 170°
2026-04-26 10:44 46.30841 10.81394 36976 ft 447 kts 171°
2026-04-26 10:44 46.27809 10.82384 37229 ft 447 kts 171°
2026-04-26 10:45 46.21755 10.84428 37246 ft 446 kts 166°
2026-04-26 10:45 46.15838 10.87214 37241 ft 448 kts 165°
2026-04-26 10:46 46.09929 10.90031 37243 ft 448 kts 165°
2026-04-26 10:46 46.04017 10.92840 37177 ft 447 kts 165°
2026-04-26 10:47 45.98106 10.95645 37247 ft 449 kts 165°
2026-04-26 10:47 45.92196 10.98443 37169 ft 446 kts 165°
2026-04-26 10:48 45.86294 11.01230 37170 ft 447 kts 165°
2026-04-26 10:48 45.80380 11.04016 37154 ft 447 kts 165°
2026-04-26 10:49 45.74473 11.06793 37132 ft 447 kts 165°
2026-04-26 10:49 45.68555 11.09569 37116 ft 447 kts 165°
2026-04-26 10:50 45.63637 11.11869 37158 ft 448 kts 165°
2026-04-26 10:50 45.59675 11.13723 37053 ft 446 kts 165°
2026-04-26 10:50 45.56726 11.15100 37116 ft 447 kts 165°
2026-04-26 10:51 45.47879 11.19220 37113 ft 447 kts 165°
2026-04-26 10:52 45.41962 11.21968 37133 ft 448 kts 165°
2026-04-26 10:52 45.36043 11.24712 37111 ft 447 kts 165°
2026-04-26 10:53 45.30126 11.27455 37126 ft 447 kts 163°
2026-04-26 10:53 45.24298 11.30605 37134 ft 449 kts 162°
2026-04-26 10:54 45.15545 11.35279 37157 ft 449 kts 162°
2026-04-26 10:54 45.09699 11.38381 37162 ft 448 kts 162°
2026-04-26 10:55 45.03855 11.41477 37176 ft 448 kts 162°
2026-04-26 10:55 44.98007 11.44568 37162 ft 449 kts 162°
2026-04-26 10:56 44.92155 11.47654 37178 ft 449 kts 162°
2026-04-26 10:56 44.86301 11.50734 37171 ft 450 kts 162°
2026-04-26 10:57 44.80432 11.53817 37167 ft 450 kts 162°
2026-04-26 10:57 44.74600 11.56872 37162 ft 451 kts 162°
2026-04-26 10:58 44.68726 11.59944 37154 ft 451 kts 162°
2026-04-26 10:58 44.62848 11.63010 37152 ft 450 kts 162°
2026-04-26 10:59 44.56971 11.66071 37148 ft 450 kts 162°
2026-04-26 10:59 44.50939 11.68177 37143 ft 448 kts 170°
2026-04-26 11:00 44.44855 11.70071 37165 ft 448 kts 171°
2026-04-26 11:00 44.38744 11.71909 37171 ft 450 kts 171°
2026-04-26 11:01 44.32625 11.73734 37185 ft 449 kts 171°
2026-04-26 11:01 44.26514 11.75552 37138 ft 449 kts 171°
2026-04-26 11:02 44.20399 11.77368 37131 ft 449 kts 171°
2026-04-26 11:02 44.14285 11.79180 37124 ft 449 kts 171°
2026-04-26 11:03 44.08176 11.80986 37138 ft 449 kts 171°
2026-04-26 11:03 44.02061 11.82791 37125 ft 449 kts 171°
2026-04-26 11:04 43.95947 11.84590 37126 ft 449 kts 171°
2026-04-26 11:04 43.89830 11.86389 37135 ft 449 kts 171°
2026-04-26 11:05 43.83715 11.88181 37139 ft 449 kts 171°
2026-04-26 11:05 43.77599 11.89971 37137 ft 449 kts 171°
2026-04-26 11:06 43.71483 11.91755 37148 ft 449 kts 171°
2026-04-26 11:06 43.65367 11.93539 37135 ft 449 kts 171°
2026-04-26 11:07 43.59252 11.95316 37146 ft 450 kts 171°
2026-04-26 11:07 43.53136 11.97092 37146 ft 449 kts 171°
2026-04-26 11:08 43.47024 11.98862 37144 ft 449 kts 171°
2026-04-26 11:08 43.40951 12.00617 37150 ft 449 kts 171°
2026-04-26 11:09 43.34839 12.02379 37148 ft 449 kts 171°
2026-04-26 11:09 43.28727 12.04138 37148 ft 449 kts 171°
2026-04-26 11:10 43.22612 12.05894 37141 ft 450 kts 171°
2026-04-26 11:10 43.16487 12.07650 37134 ft 449 kts 171°
2026-04-26 11:11 43.10368 12.09400 37135 ft 449 kts 171°
2026-04-26 11:11 43.04249 12.11147 37146 ft 449 kts 171°
2026-04-26 11:12 42.98130 12.12891 37136 ft 449 kts 171°
2026-04-26 11:12 42.92013 12.14629 37138 ft 449 kts 171°
2026-04-26 11:13 42.85900 12.16363 37142 ft 449 kts 171°
2026-04-26 11:13 42.79785 12.18095 37136 ft 449 kts 171°
2026-04-26 11:14 42.73668 12.19823 37138 ft 449 kts 171°
2026-04-26 11:14 42.68585 12.21257 37129 ft 449 kts 171°
2026-04-26 11:15 42.61436 12.23269 37134 ft 449 kts 171°
2026-04-26 11:15 42.55320 12.24987 37129 ft 449 kts 171°
2026-04-26 11:16 42.49206 12.26700 37129 ft 449 kts 171°
2026-04-26 11:16 42.43094 12.28410 37141 ft 449 kts 171°
2026-04-26 11:17 42.36983 12.30116 37139 ft 448 kts 171°
2026-04-26 11:17 42.30872 12.31819 37138 ft 448 kts 171°
2026-04-26 11:18 42.24764 12.33518 37139 ft 448 kts 171°
2026-04-26 11:18 42.18656 12.35213 37140 ft 448 kts 171°
2026-04-26 11:19 42.12551 12.36904 37141 ft 448 kts 171°
2026-04-26 11:19 42.06475 12.38583 37126 ft 448 kts 171°
2026-04-26 11:20 42.01403 12.39983 37122 ft 448 kts 171°
2026-04-26 11:20 41.94263 12.41949 37118 ft 448 kts 171°
2026-04-26 11:21 41.88160 12.43627 37123 ft 448 kts 171°
2026-04-26 11:21 41.82050 12.45302 37148 ft 448 kts 171°
2026-04-26 11:22 41.75989 12.46962 37162 ft 448 kts 171°
2026-04-26 11:22 41.69879 12.48627 37156 ft 448 kts 171°
2026-04-26 11:23 41.63775 12.50295 37158 ft 448 kts 171°
2026-04-26 11:23 41.57666 12.51959 37157 ft 448 kts 171°
2026-04-26 11:24 41.51562 12.53617 37154 ft 448 kts 171°
2026-04-26 11:24 41.45458 12.55271 37159 ft 447 kts 171°
2026-04-26 11:25 41.39357 12.56923 37162 ft 447 kts 171°
2026-04-26 11:25 41.33255 12.58571 37165 ft 447 kts 171°
2026-04-26 11:26 41.27151 12.60216 37163 ft 447 kts 171°
2026-04-26 11:26 41.21050 12.61857 37168 ft 448 kts 171°
2026-04-26 11:27 41.14945 12.63497 37167 ft 447 kts 171°
2026-04-26 11:27 41.09873 12.64857 37168 ft 447 kts 171°
2026-04-26 11:28 41.03770 12.66490 37171 ft 448 kts 170°
2026-04-26 11:28 40.97661 12.68122 37176 ft 448 kts 171°
2026-04-26 11:29 40.91554 12.69750 37179 ft 448 kts 171°
2026-04-26 11:29 40.85446 12.71375 37175 ft 448 kts 170°
2026-04-26 11:30 40.79337 12.72998 37179 ft 448 kts 170°
2026-04-26 11:30 40.73226 12.74617 37178 ft 448 kts 170°
2026-04-26 11:31 40.67117 12.76235 37176 ft 448 kts 170°
2026-04-26 11:31 40.61005 12.77848 37174 ft 448 kts 170°
2026-04-26 11:32 40.54890 12.79461 37176 ft 448 kts 170°
2026-04-26 11:32 40.48776 12.81069 37176 ft 448 kts 170°
2026-04-26 11:33 40.42703 12.82664 37178 ft 448 kts 170°
2026-04-26 11:33 40.36586 12.84268 37179 ft 449 kts 170°
2026-04-26 11:34 40.30462 12.85870 37179 ft 449 kts 170°
2026-04-26 11:34 40.24339 12.87470 37181 ft 449 kts 170°
2026-04-26 11:35 40.18218 12.89065 37176 ft 449 kts 171°
2026-04-26 11:35 40.12088 12.90660 37182 ft 449 kts 171°
2026-04-26 11:36 40.05956 12.92254 37181 ft 449 kts 171°
2026-04-26 11:36 39.99825 12.93843 37184 ft 449 kts 171°
2026-04-26 11:37 39.93689 12.95431 37184 ft 449 kts 171°
2026-04-26 11:37 39.87557 12.97015 37184 ft 449 kts 171°
2026-04-26 11:38 39.81422 12.98597 37184 ft 449 kts 171°
2026-04-26 11:38 39.75288 13.00176 37184 ft 449 kts 171°
2026-04-26 11:39 39.69150 13.01752 37185 ft 450 kts 171°
2026-04-26 11:39 39.63007 13.03328 37183 ft 450 kts 171°
2026-04-26 11:40 39.56864 13.04901 37184 ft 450 kts 171°
2026-04-26 11:40 39.50719 13.06471 37174 ft 450 kts 171°
2026-04-26 11:42 39.26125 13.12726 37179 ft 450 kts 171°
2026-04-26 11:43 39.20015 13.14274 37182 ft 450 kts 171°
2026-04-26 11:43 39.13870 13.15828 37181 ft 450 kts 171°
2026-04-26 11:44 39.07725 13.17378 37181 ft 450 kts 171°
2026-04-26 11:44 39.01577 13.18927 37180 ft 450 kts 172°
2026-04-26 11:45 38.95427 13.20474 37175 ft 450 kts 172°
2026-04-26 11:45 38.89273 13.22018 37175 ft 450 kts 172°
2026-04-26 11:46 38.83123 13.23559 37176 ft 450 kts 172°
2026-04-26 11:46 38.76965 13.25098 37173 ft 451 kts 172°
2026-04-26 11:47 38.70805 13.26638 37172 ft 451 kts 172°
2026-04-26 11:47 38.64640 13.28174 37177 ft 451 kts 172°
2026-04-26 11:48 38.58477 13.29710 37164 ft 451 kts 172°
2026-04-26 11:48 38.52310 13.31242 37176 ft 452 kts 172°
2026-04-26 11:49 38.46140 13.32772 37176 ft 452 kts 172°
2026-04-26 11:49 38.39970 13.34299 37176 ft 452 kts 172°
2026-04-26 11:50 38.33805 13.35821 37161 ft 451 kts 172°
2026-04-26 11:50 38.27634 13.37344 37176 ft 452 kts 172°
2026-04-26 11:51 38.21463 13.38863 37170 ft 451 kts 172°
2026-04-26 11:51 38.15296 13.40379 37165 ft 451 kts 172°
2026-04-26 11:52 38.10168 13.41637 37159 ft 451 kts 172°
2026-04-26 11:52 38.03003 13.43392 37160 ft 451 kts 172°
2026-04-26 11:53 37.96840 13.44900 37162 ft 451 kts 172°
2026-04-26 11:54 37.87594 13.47156 37151 ft 451 kts 172°
2026-04-26 11:54 37.81430 13.48657 37154 ft 451 kts 172°
2026-04-26 11:55 37.75263 13.50157 37155 ft 451 kts 172°
2026-04-26 11:55 37.69101 13.51653 37147 ft 451 kts 172°
2026-04-26 11:56 37.62936 13.53147 37154 ft 451 kts 172°
2026-04-26 11:56 37.56771 13.54639 37154 ft 451 kts 172°
2026-04-26 11:57 37.50608 13.56127 37144 ft 451 kts 172°
2026-04-26 11:57 37.44442 13.57614 37152 ft 451 kts 172°
2026-04-26 11:58 37.38276 13.59098 37139 ft 451 kts 172°
2026-04-26 11:58 37.32108 13.60580 37149 ft 452 kts 172°
2026-04-26 11:59 37.25937 13.62061 37160 ft 451 kts 172°
2026-04-26 11:59 37.19761 13.63540 37157 ft 453 kts 172°
2026-04-26 12:00 37.13513 13.65040 37153 ft 461 kts 171°
2026-04-26 12:00 37.10446 13.66278 37170 ft 465 kts 160°
2026-04-26 12:00 37.07452 13.67841 37175 ft 467 kts 161°
2026-04-26 12:01 37.01449 13.70928 37168 ft 466 kts 161°
2026-04-26 12:01 36.95448 13.74015 37121 ft 466 kts 161°
2026-04-26 12:01 36.92499 13.75528 35940 ft 466 kts 161°
2026-04-26 12:02 36.89509 13.77063 34870 ft 464 kts 161°
2026-04-26 12:02 36.87494 13.78097 34240 ft 461 kts 161°
2026-04-26 12:02 36.83547 13.80120 32861 ft 456 kts 161°
2026-04-26 12:02 36.80663 13.81597 31877 ft 452 kts 161°
2026-04-26 12:03 36.77771 13.83076 30941 ft 447 kts 161°
2026-04-26 12:03 36.74911 13.84538 30034 ft 442 kts 161°
2026-04-26 12:03 36.72082 13.85983 29023 ft 437 kts 161°
2026-04-26 12:03 36.69287 13.87409 28075 ft 432 kts 161°
2026-04-26 12:04 36.66523 13.88818 27165 ft 427 kts 161°
2026-04-26 12:04 36.63793 13.90209 26295 ft 422 kts 161°
2026-04-26 12:04 36.61091 13.91584 25461 ft 417 kts 161°
2026-04-26 12:04 36.58423 13.92942 24680 ft 412 kts 161°
2026-04-26 12:05 36.55781 13.94285 23921 ft 408 kts 161°
2026-04-26 12:05 36.53171 13.95611 23088 ft 403 kts 161°
2026-04-26 12:05 36.50590 13.96921 22247 ft 398 kts 161°
2026-04-26 12:05 36.48043 13.98211 21461 ft 393 kts 161°
2026-04-26 12:06 36.45529 13.99485 20700 ft 387 kts 161°
2026-04-26 12:06 36.43055 14.00737 20074 ft 381 kts 161°
2026-04-26 12:06 36.40606 14.01976 19622 ft 379 kts 160°
2026-04-26 12:06 36.38179 14.03202 19270 ft 375 kts 160°
2026-04-26 12:07 36.35772 14.04418 18896 ft 372 kts 160°
2026-04-26 12:07 36.33378 14.05626 18518 ft 370 kts 160°
2026-04-26 12:07 36.31002 14.06825 18086 ft 368 kts 160°
2026-04-26 12:07 36.28640 14.08016 17681 ft 365 kts 160°
2026-04-26 12:08 36.26299 14.09195 17297 ft 361 kts 160°
2026-04-26 12:08 36.23981 14.10362 16920 ft 358 kts 160°
2026-04-26 12:08 36.21682 14.11519 16547 ft 355 kts 160°
2026-04-26 12:08 36.19404 14.12664 16179 ft 352 kts 160°
2026-04-26 12:09 36.17142 14.13801 15808 ft 349 kts 160°
2026-04-26 12:09 36.14900 14.14926 15446 ft 346 kts 160°
2026-04-26 12:09 36.12673 14.16043 15081 ft 344 kts 160°
2026-04-26 12:09 36.10464 14.17151 14715 ft 342 kts 160°
2026-04-26 12:10 36.08267 14.18253 14362 ft 340 kts 160°
2026-04-26 12:10 36.06084 14.19349 14020 ft 338 kts 159°
2026-04-26 12:10 36.04073 14.20846 13516 ft 342 kts 139°
2026-04-26 12:10 36.02621 14.23166 13080 ft 342 kts 119°
2026-04-26 12:11 36.01495 14.25734 12759 ft 338 kts 119°
2026-04-26 12:11 36.00397 14.28247 12404 ft 336 kts 119°
2026-04-26 12:11 35.99297 14.30776 12044 ft 333 kts 118°
2026-04-26 12:11 35.98193 14.33322 11669 ft 331 kts 118°
2026-04-26 12:12 35.97126 14.35782 11331 ft 329 kts 118°
2026-04-26 12:12 35.96047 14.38267 10968 ft 328 kts 118°
2026-04-26 12:12 35.94975 14.40736 10698 ft 323 kts 118°
2026-04-26 12:12 35.94264 14.42372 10601 ft 317 kts 118°
2026-04-26 12:13 35.92931 14.45435 10417 ft 294 kts 118°
2026-04-26 12:13 35.91980 14.47618 10295 ft 285 kts 118°
2026-04-26 12:13 35.91052 14.49748 10110 ft 280 kts 118°
2026-04-26 12:13 35.90129 14.51866 9778 ft 281 kts 118°
2026-04-26 12:14 35.89194 14.54008 9467 ft 286 kts 118°
2026-04-26 12:14 35.88244 14.56182 9116 ft 289 kts 118°
2026-04-26 12:14 35.87291 14.58367 8786 ft 289 kts 118°
2026-04-26 12:14 35.86343 14.60537 8490 ft 287 kts 118°
2026-04-26 12:15 35.85400 14.62694 8166 ft 285 kts 118°
2026-04-26 12:15 35.84463 14.64835 7871 ft 283 kts 119°
2026-04-26 12:15 35.83529 14.66966 7572 ft 282 kts 119°
2026-04-26 12:15 35.82602 14.69081 7273 ft 280 kts 119°
2026-04-26 12:16 35.81679 14.71188 6976 ft 279 kts 119°
2026-04-26 12:16 35.80760 14.73283 6686 ft 277 kts 119°
2026-04-26 12:16 35.80157 14.74657 6552 ft 273 kts 119°
2026-04-26 12:16 35.79205 14.76646 6364 ft 266 kts 130°
2026-04-26 12:17 35.77770 14.78024 6015 ft 263 kts 159°
2026-04-26 12:17 35.75994 14.78428 5633 ft 261 kts 186°
2026-04-26 12:17 35.74269 14.77829 5338 ft 257 kts 210°
2026-04-26 12:17 35.72916 14.76496 5171 ft 243 kts 225°
2026-04-26 12:18 35.71722 14.75102 5088 ft 230 kts 224°
2026-04-26 12:18 35.70598 14.73774 5016 ft 219 kts 225°
2026-04-26 12:18 35.69529 14.72494 4893 ft 210 kts 225°
2026-04-26 12:18 35.68773 14.71002 4642 ft 207 kts 256°
2026-04-26 12:19 35.68833 14.69248 4342 ft 210 kts 289°
2026-04-26 12:19 35.69641 14.67761 4055 ft 212 kts 313°
2026-04-26 12:19 35.70664 14.66475 3813 ft 207 kts 313°
2026-04-26 12:19 35.71661 14.65219 3540 ft 204 kts 313°
2026-04-26 12:20 35.72650 14.63979 3225 ft 202 kts 313°
2026-04-26 12:20 35.73627 14.62765 3023 ft 194 kts 314°
2026-04-26 12:20 35.74550 14.61626 2863 ft 185 kts 314°
2026-04-26 12:20 35.75438 14.60537 2592 ft 175 kts 313°
2026-04-26 12:21 35.76287 14.59488 2322 ft 170 kts 313°
2026-04-26 12:21 35.77105 14.58473 2064 ft 165 kts 314°
2026-04-26 12:21 35.77912 14.57475 1831 ft 164 kts 314°
2026-04-26 12:21 35.78714 14.56484 1610 ft 160 kts 314°
2026-04-26 12:22 35.79475 14.55543 1403 ft 152 kts 313°
2026-04-26 12:22 35.80207 14.54634 1189 ft 147 kts 313°
2026-04-26 12:22 35.80926 14.53736 992 ft 147 kts 313°
2026-04-26 12:22 35.81649 14.52831 796 ft 149 kts 313°
2026-04-26 12:23 35.82382 14.51936 567 ft 149 kts 314°
2026-04-26 12:23 35.83110 14.51024 389 ft 150 kts 314°
2026-04-26 12:23 35.83838 14.50128 259 ft 141 kts 313°
2026-04-26 12:23 35.84432 14.49380 261 ft 95 kts 313°
2026-04-26 12:24 35.84709 14.49060 261 ft 32 kts 326°
2026-04-26 12:24 35.84862 14.48977 261 ft 19 kts 349°
2026-04-26 12:24 35.84922 14.49068 261 ft 18 kts 116°
2026-04-26 12:25 35.84880 14.49336 261 ft 19 kts 135°
2026-04-26 12:25 35.84790 14.49445 261 ft 15 kts 135°
2026-04-26 12:25 35.84753 14.49502 261 ft 2 kts 97°
2026-04-26 12:25 35.84754 14.49549 261 ft 8 kts 106°
2026-04-26 12:26 35.84719 14.49538 261 ft 7 kts 289°
2026-04-26 12:26 35.84780 14.49474 261 ft 14 kts 334°
2026-04-26 12:26 35.84851 14.49456 261 ft 5 kts
2026-04-26 12:26 35.84859 14.49456 261 ft 0 kts